Weather History for Redwood Falls, MN

Change the Weather History Date:

Wednesday, September 4, 2013

  Actual Average Record
Temperature  
Mean Temperature 75 °F -  
Max Temperature 89 °F 78 °F 95 °F (1933)
Min Temperature 62 °F 55 °F 38 °F (1974)
Cooling Degree Days 10    
Growing Degree Days 25 (Base 50)    
Moisture  
Dew Point 66 °F    
Average Humidity 76    
Maximum Humidity 97    
Minimum Humidity 51    
Precipitation  
Precipitation 0.00 in - - ()
Sea Level Pressure  
Sea Level Pressure 30.07 in    
Wind  
Wind Speed 4 mph (SE)    
Max Wind Speed 6 mph    
Max Gust Speed -    
Visibility 10 miles    
Events      
Averages and records for this station are not official NWS values.
T = Trace of Precipitation, MM = Missing Value Source: NWS Daily Summary

Daily Weather History Graph

Daily Weather History Graph

Search for Another Location

Airport:

Trip Planner

Search our weather history database for the weather conditions in past years. The results will help you decide how hot, cold, wet, or windy it might be!

Date:

Astronomy

Sep. 04, 2013 Rise Set
Actual Time 6:46 AM CDT 7:50 PM CDT
Civil Twilight 6:16 AM CDT 8:20 PM CDT
Nautical Twilight 5:41 AM CDT 8:56 PM CDT
Astronomical Twilight 5:03 AM CDT 9:33 PM CDT
Moon 5:59 AM CDT (9/4) 7:09 PM CDT (9/4)
Length of Visible Light 14h 03m
Length of Day
13h 04m
Waning Crescent, 1% of the Moon is Illuminated
Sep 4
Waning Crescent
Sep 5
New
Sep 12
First Quarter
Sep 19
Full
Sep 26
Last Quarter

Hourly Weather History & Observations

Time (CDT) Temp. Heat Index Dew Point Humidity Pressure Visibility Wind Dir Wind Speed Gust Speed Precip Events Conditions
12:53 AM 64.0 °F - 61.0 °F 90% 30.01 in 10.0 mi South 5.8 mph - N/A   Clear
1:53 AM 64.0 °F - 61.0 °F 90% 30.02 in 10.0 mi SSW 3.5 mph - N/A   Clear
2:53 AM 62.1 °F - 60.1 °F 93% 30.02 in 10.0 mi South 3.5 mph - N/A   Clear
3:53 AM 62.1 °F - 60.1 °F 93% 30.03 in 10.0 mi South 3.5 mph - N/A   Clear
4:53 AM 64.9 °F - 63.0 °F 93% 30.04 in 10.0 mi SSW 5.8 mph - N/A   Clear
5:53 AM 64.9 °F - 63.0 °F 93% 30.05 in 10.0 mi South 5.8 mph - N/A   Clear
6:53 AM 63.0 °F - 62.1 °F 97% 30.06 in 9.0 mi SSW 3.5 mph - N/A   Clear
7:53 AM 64.9 °F - 63.0 °F 93% 30.07 in 10.0 mi SSW 3.5 mph - N/A   Clear
8:53 AM 68.0 °F - 63.0 °F 84% 30.08 in 10.0 mi Calm Calm - N/A   Clear
9:53 AM 73.0 °F - 66.0 °F 79% 30.10 in 10.0 mi North 3.5 mph - N/A   Clear
10:53 AM 78.1 °F - 66.9 °F 68% 30.10 in 10.0 mi Calm Calm - N/A   Clear
11:53 AM 82.0 °F 84.9 °F 68.0 °F 62% 30.09 in 10.0 mi Calm Calm - N/A   Clear
12:53 PM 82.9 °F 85.8 °F 68.0 °F 60% 30.08 in 10.0 mi Calm Calm - N/A   Clear
1:53 PM 86.0 °F 88.8 °F 66.9 °F 53% 30.08 in 10.0 mi Variable 4.6 mph - N/A   Clear
2:53 PM 88.0 °F 91.4 °F 68.0 °F 51% 30.07 in 10.0 mi East 3.5 mph - N/A   Clear
3:53 PM 88.0 °F 91.4 °F 68.0 °F 51% 30.06 in 10.0 mi NNE 3.5 mph - N/A   Clear
4:53 PM 88.0 °F 92.1 °F 69.1 °F 53% 30.06 in 10.0 mi Variable 3.5 mph - N/A   Clear
5:53 PM 86.0 °F 90.7 °F 70.0 °F 59% 30.06 in 10.0 mi ENE 4.6 mph - N/A   Clear
6:53 PM 82.9 °F 86.5 °F 69.1 °F 63% 30.07 in 10.0 mi East 3.5 mph - N/A   Clear
7:53 PM 80.1 °F 83.2 °F 70.0 °F 71% 30.07 in 10.0 mi Calm Calm - N/A   Clear
8:53 PM 78.1 °F - 70.0 °F 76% 30.09 in 10.0 mi ENE 3.5 mph - N/A   Clear
9:53 PM 75.0 °F - 69.1 °F 82% 30.10 in 10.0 mi East 5.8 mph - N/A   Clear
10:53 PM 73.0 °F - 66.9 °F 81% 30.11 in 10.0 mi East 3.5 mph - N/A   Clear
11:53 PM 70.0 °F - 64.9 °F 84% 30.13 in 10.0 mi East 5.8 mph - N/A   Clear